Location: Unspecified
(0.0000°N, 0.0000°E)
Time: 07:15:29
(UTC+00:00)

Tiros 1 - Visible Passes

Search period start: 26 March 2017 00:00
Search period end: 05 April 2017 00:00
Orbit: 630 x 665 km, 48.4° (Epoch: 24 March)

Date Brightness Start Highest point End Pass type
(mag) Time Alt. Az. Time Alt. Az. Time Alt. Az.
26 Mar 7.4 18:35:53 10° SSW 18:40:30 50° SE 18:45:08 10° NE visible
26 Mar 9.9 20:20:20 10° WNW 20:22:36 13° NW 20:24:03 12° NNW visible
27 Mar 8.2 19:02:06 10° SW 19:06:40 47° NW 19:11:15 10° NNE visible
28 Mar 9.5 05:34:01 10° N 05:37:48 24° NE 05:41:34 10° ESE visible
28 Mar 10.0 19:30:15 10° W 19:32:54 15° NW 19:35:34 10° NNW visible
30 Mar 9.5 04:44:31 10° N 04:48:08 22° NE 04:51:43 10° E visible
30 Mar 9.9 18:40:14 10° W 18:43:12 16° NW 18:46:13 10° N visible
31 Mar 7.3 05:09:38 10° NNW 05:14:20 74° NE 05:18:59 10° SE visible
01 Apr 9.5 03:56:49 17° NNE 03:58:27 20° NE 04:01:49 10° E visible
01 Apr 7.9 05:36:19 10° WNW 05:40:29 32° SW 05:44:39 10° SSE visible
02 Apr 7.4 04:23:38 49° N 04:24:40 65° NE 04:29:17 10° SE visible
03 Apr 7.7 04:50:21 35° WSW 04:50:49 36° SW 04:55:06 10° SSE visible
04 Apr 9.9 03:39:08 13° SE 03:39:08 13° SE 03:39:35 10° SE visible
04 Apr 9.1 05:16:54 11° SW 05:17:04 11° SW 05:18:24 10° SSW visible
